Regional Weather Roundup
Issued by NWS

Home | Current Version | Previous Version | Graphics & Text | Print | Product List | Glossary On
Versions: 1 2 3 4 5 6 7 8 9 10 11 12 13 14 15 16 17 18 19 20 21 22 23 24 25 26 27 28 29 30 31 32 33 34 35 36 37 38 39 40 41 42 43 44 45 46 47 48 49 50
791
ASUS45 KBOU 260010
RWRCO

WEATHER ROUNDUP FOR COLORADO
NATIONAL WEATHER SERVICE DENVER/BOULDER CO
600 PM MDT SUN SEP 25 2016

NOTE: "FAIR" INDICATES FEW OR NO CLOUDS BELOW 12000 FEET WITH NO
SIGNIFICANT WEATHER AND/OR OBSTRUCTIONS TO VISIBILITY.

COZ001>005-013-030-031-260100-
...NORTHWEST COLORADO...

CITY           SKY/WX    TMP DP  RH WIND       PRES   REMARKS
CRAIG          FAIR      61  29  29 W5        30.47S
HAYDEN         FAIR      59  28  31 NW8       30.48R
MEEKER         FAIR      62  34  35 NW7       30.45S
MOUNT WERNER   NOT AVBL
STEAMBOAT SPGS FAIR      58  31  35 SW7       30.48R
WALDEN           N/A     55  23  28 W8        30.52R
$$

COZ006>008-011-260100-
...WEST CENTRAL VALLEYS...

CITY           SKY/WX    TMP DP  RH WIND       PRES   REMARKS
GRAND JUNCTION FAIR      69  38  32 W7        30.34F
MONTROSE       FAIR      65  33  30 N5        30.41R
EAGLE          SUNNY     66  30  26 SW12      30.43S
RIFLE          FAIR      69  32  25 CALM      30.38S
DELTA          NOT AVBL
NUCLA          FAIR      70  30  23 NW9       30.40R
$$

COZ017>023-064>068-260100-
...SOUTHWEST COLORADO...

CITY           SKY/WX    TMP DP  RH WIND       PRES   REMARKS
DURANGO        FAIR      69  29  22 W8        30.36R
CORTEZ         FAIR      70  35  27 S14       30.33R
PAGOSA SPRINGS FAIR      67  27  22 SW9       30.41R
TELLURIDE      FAIR      57  36  44 W10G16    30.51S
WOLF CREEK PAS FAIR      45  30  57 SW10      30.68R
$$

COZ009-010-012-014-032>034-037-058>063-260100-
...CENTRAL COLORADO...

CITY           SKY/WX    TMP DP  RH WIND       PRES   REMARKS
ASPEN          FAIR      61  26  26 N9        30.46R
BUENA VISTA    FAIR      65  26  22 SE8       30.42R
COPPER MTN     FAIR      46  19  34 NW13G18   30.68S
BERTHOUD PASS  FAIR      36  23  60 N21       30.69S
COTTONWOOD PAS FAIR      59  23  25 CALM      30.54R
GUNNISON       FAIR      63  33  32 W9        30.43R
KREMMLING      FAIR      61  14  16 NW9G18    30.47R
LEADVILLE      FAIR      54  22  28 N10       30.54R
MONARCH PASS   FAIR      45  27  49 W14G20    30.76R
SALIDA         FAIR      67  29  24 SE12G18   30.47R
SUNLIGHT       FAIR      43  34  70 NW6       30.67R
WILKERSON PASS FAIR      43  27  52 E10       30.67R
$$

COZ069>075-260100-
...SAN LUIS VALLEY/SANGRE DE CRISTO MOUNTAINS...

CITY           SKY/WX    TMP DP  RH WIND       PRES   REMARKS
ALAMOSA        FAIR      65  24  21 SW3       30.41R
LA VETA PASS   FAIR      43  28  56 MISG      30.58S
SAGUACHE       NOT AVBL
$$

COZ035-036-038>040-260100-
...NORTHERN COLORADO FRONT RANGE...

CITY           SKY/WX    TMP DP  RH WIND       PRES   REMARKS
DENVER INTL AP FAIR      65  29  25 NE3       30.39R
DMNS CITY PARK NOT AVBL
AURORA         CLEAR     64  29  26 E7        30.40R
FRONT RANGE AP NOT AVBL
ERIE MUNI ARPT FAIR      67  29  24 E7        30.38R
BOULDER MUN AP FAIR      66  32  28 NE6       30.38R
CENTENNIAL     FAIR      65  28  24 NE9       30.40R
BROOMFIELD     CLEAR     66  30  26 E6        30.40R
FORT COLLINS   FAIR      66  32  28 S3        30.36R
LONGMONT       FAIR      68  34  28 E5        30.39R
$$

COZ041-046-047-076>085-087-088-260100-
...PIKES PEAK/PALMER DIVIDE AND SOUTHERN FOOTHILLS...

CITY           SKY/WX    TMP DP  RH WIND       PRES   REMARKS
COLO. SPRINGS  FAIR      63  29  27 S10       30.43R
A. F. ACADEMY  FAIR      62  30  29 S10       30.43R
SCHRIEVER AFB  NOT AVBL
ELLICOTT       NOT AVBL
FALCON         FAIR      61  29  30 SE6       30.46R
FORT CARSON    FAIR      64  30  27 SE8       30.40R
LIMON          FAIR      64  27  24 NE8       30.40R
MONUMENT HILL  FAIR      57  30  35 E7        30.47R
TRINIDAD       FAIR      63  29  27 E6        30.41R
$$

COZ042>045-048>051-090-091-260100-
...NORTHEAST COLORADO...

CITY           SKY/WX    TMP DP  RH WIND       PRES   REMARKS
GREELEY ARPT   FAIR      68  32  26 S8        30.36S
AKRON          FAIR      63  31  30 NE9       30.37S
BURLINGTON     FAIR      65  30  27 N14       30.36R
WRAY           NOT AVBL
STERLING       FAIR      64  36  34 NE10      30.34S
HOLYOKE        FAIR      66  32  28 NW14      30.35S
FORT MORGAN    FAIR      67  28  23 NE6       30.36S
$$

COZ086-089-092>099-260100-
...SOUTHEAST COLORADO...

CITY           SKY/WX    TMP DP  RH WIND       PRES   REMARKS
PUEBLO         FAIR      69  31  24 SE6       30.35R
LA JUNTA       FAIR      71  31  22 E6        30.35R
LAMAR          FAIR      71  31  22 E6        30.32R
SPRINGFIELD    NOT AVBL
$$




USA.gov is the U.S. government's official web portal to all federal, state and local government web resources and services.